This demonstration page uses our WeatherBlox Daily Observations layout. Learn more.

36.17497, -115.13722

Hourly Observations for January 1, 2020

Temp ( °F °C ) Dew Point ( °F °C ) Humidity (%) Winds ( mph kmh ) Pressure ( in mb ) Visibility ( mi km ) Precip ( " mm )
12:53 am 00:53 Clear 40 4.4 25 -3.9 55 55 NW 8 13 30.16 1021 10 16.0934 0 0
1:53 am 01:53 Clear 39 3.9 25 -3.9 57 57 NW 5 7 30.16 1022 10 16.0934 0 0
2:53 am 02:53 Clear 39 3.9 24 -4.4 55 55 W 3 6 30.16 1022 10 16.0934 0 0
3:53 am 03:53 Clear 41 5 24 -4.4 51 51 W 3 6 30.15 1021 10 16.0934 0 0
4:53 am 04:53 Clear 40 4.4 25 -3.9 55 55 Calm 30.14 1021 10 16.0934 0 0
5:53 am 05:53 Clear 38 3.3 26 -3.3 62 62 NW 8 13 30.15 1021 10 16.0934 0 0
6:53 am 06:53 Sunny 38 3.3 26 -3.3 62 62 WNW 6 9 30.14 1021 10 16.0934 0 0
7:53 am 07:53 Sunny 40 4.4 26 -3.3 58 58 Calm 30.13 1020 10 16.0934 0 0
8:53 am 08:53 Sunny 42 5.6 26 -3.3 53 53 Calm 30.15 1021 10 16.0934 0 0
9:53 am 09:53 Sunny 46 7.8 26 -3.3 46 46 NNE 3 6 30.14 1021 10 16.0934 0 0
10:53 am 10:53 Sunny 47 8.3 27 -2.8 46 46 Calm 30.11 1020 10 16.0934 0 0
11:53 am 11:53 Sunny 49 9.4 25 -3.9 39 39 E 5 7 30.07 1018 10 16.0934 0 0
12:53 pm 12:53 Sunny 50 10 24 -4.4 36 36 S 3 6 30.02 1017 10 16.0934 0 0
1:53 pm 13:53 Sunny 51 10.6 25 -3.9 36 36 E 6 9 29.99 1016 10 16.0934 0 0
2:53 pm 14:53 Sunny 52 11.1 25 -3.9 35 35 E 6 9 29.99 1016 10 16.0934 0 0
3:53 pm 15:53 Sunny 51 10.6 25 -3.9 36 36 Calm 29.98 1015 10 16.0934 0 0
4:53 pm 16:53 Clear 50 10 27 -2.8 41 41 Calm 29.98 1015 10 16.0934 0 0
5:53 pm 17:53 Mostly Cloudy 49 9.4 30 -1.1 48 48 SSE 5 7 29.95 1014 10 16.0934 0.001 0.001
6:53 pm 18:53 Clear 48 8.9 29 -1.7 48 48 SW 7 11 29.87 1012 10 16.0934 0 0
7:53 pm 19:53 Clear 46 7.8 29 -1.7 51 51 Calm 29.89 1012 10 16.0934 0 0
8:53 pm 20:53 Clear 49 9.4 28 -2.2 44 44 NNE 8 13 29.9 1013 10 16.0934 0 0
9:53 pm 21:53 Clear 45 7.2 28 -2.2 52 52 E 6 9 29.93 1014 10 16.0934 0 0
10:53 pm 22:53 Clear 44 6.7 28 -2.2 53 53 VRB 3 6 29.93 1014 10 16.0934 0 0
11:53 pm 23:53 Clear 43 6.1 28 -2.2 56 56 Calm 29.95 1014 10 16.0934 0 0

Powered by AerisWeather